EW9826 Weather Reports


time (UTC)temp
F
wind
direction
speed
knots
gust
knots
rain 1hr
in
rain 24hr
in
rain mn
in
humidity
%
barometer
mb
20200702100004 65 285 4.3 11.3 0.00 0.05 0.04 73 1009.8
20200702095009 65 239 7.0 13.0 0.00 0.05 0.04 74 1009.6
20200702094007 65 277 7.0 17.4 0.00 0.05 0.04 74 1009.6
20200702093006 66 282 5.2 8.7 0.00 0.05 0.04 74 1009.6
20200702092005 65 242 5.2 10.4 0.00 0.05 0.04 75 1009.5
20200702091005 65 258 4.3 13.0 0.00 0.05 0.04 76 1009.3
20200702085505 65 271 4.3 10.4 0.00 0.05 0.04 75 1009.2
20200702085006 65 251 6.1 14.8 0.00 0.05 0.04 76 1009.2
20200702084505 64 259 5.2 12.2 0.00 0.05 0.04 78 1009.1
20200702084006 64 241 3.5 7.8 0.00 0.05 0.04 78 1009.1
20200702083505 64 216 4.3 11.3 0.00 0.05 0.04 77 1009.1
20200702082505 64 250 7.0 12.2 0.00 0.05 0.04 78 1009.1
20200702082006 64 223 4.3 10.4 0.00 0.05 0.04 79 1009.0
20200702081504 63 213 5.2 11.3 0.00 0.05 0.04 80 1009.0
20200702080007 63 275 4.3 7.8 0.00 0.05 0.04 83 1008.9
20200702075505 63 248 5.2 12.2 0.00 0.05 0.04 84 1008.9
20200702075006 63 252 5.2 11.3 0.00 0.05 0.04 84 1008.8
20200702074505 63 270 4.3 11.3 0.00 0.05 0.04 86 1008.7
20200702073505 62 256 4.3 10.4 0.00 0.05 0.04 89 1008.8
20200702073005 62 235 4.3 8.7 0.02 0.05 0.04 89 1008.7
20200702072006 62 236 4.3 7.8 0.02 0.05 0.04 90 1008.6
20200702071505 61 236 4.3 11.3 0.02 0.05 0.04 90 1008.6
20200702070005 61 233 4.3 7.8 0.02 0.05 0.04 90 1008.6
20200702065504 61 255 1.7 8.7 0.02 0.05 0.04 90 1008.6
20200702065005 61 238 5.2 10.4 0.02 0.05 0.04 90 1008.6
20200702064505 61 237 4.3 7.8 0.02 0.05 0.04 90 1008.5
20200702064005 61 244 5.2 7.8 0.02 0.05 0.04 90 1008.5
20200702063505 62 242 3.5 7.0 0.02 0.05 0.04 90 1008.3
20200702062504 62 205 4.3 7.8 0.02 0.03 0.02 90 1008.3
20200702062006 62 234 4.3 7.8 0.02 0.03 0.02 90 1008.3
20200702061006 62 261 3.5 7.8 0.02 0.02 0.02 90 1008.3
20200702060005 62 229 2.6 5.2 0.02 0.02 0.02 89 1008.3
20200702055513 62 231 2.6 7.0 0.02 0.02 0.02 89 1008.4
20200702054505 62 240 3.5 6.1 0.02 0.02 0.02 89 1008.2
20200702053505 62 244 1.7 7.8 0.02 0.02 0.02 88 1008.2
20200702053006 62 238 5.2 8.7 0.02 0.02 0.02 88 1008.3
20200702052006 62 236 2.6 6.1 0.00 0.01 0.00 88 1008.1
20200702051505 62 254 1.7 5.2 0.00 0.01 0.00 88 1008.1
20200702050005 62 227 1.7 4.3 0.00 0.01 0.00 88 1008.1
20200702045505 62 241 2.6 5.2 0.00 0.01 0.00 88 1008.1
20200702045006 62 235 2.6 7.0 0.00 0.01 0.00 88 1008.0
20200702044505 62 226 2.6 7.0 0.00 0.01 0.00 88 1008.0
20200702044006 62 230 4.3 6.1 0.00 0.01 0.00 88 1008.0
20200702043505 62 230 2.6 5.2 0.00 0.01 0.00 88 1007.9
20200702043005 62 224 2.6 4.3 0.00 0.01 0.00 88 1007.9
20200702042006 62 244 3.5 7.0 0.00 0.01 0.00 88 1007.8
20200702041504 62 237 2.6 5.2 0.00 0.01 0.00 88 1007.7
20200702041005 62 234 4.3 8.7 0.00 0.02 0.00 88 1007.7
20200702035005 62 224 4.3 6.1 0.00 0.02 0.00 88 1007.7
20200702034504 62 230 3.5 8.7 0.00 0.02 0.00 88 1007.7
20200702034005 62 220 4.3 7.8 0.00 0.02 0.00 88 1007.7
20200702033505 62 231 2.6 5.2 0.00 0.02 0.00 88 1007.6
20200702033006 62 251 4.3 6.1 0.00 0.02 0.00 88 1007.6
20200702031504 62 227 4.3 7.8 0.00 0.02 0.00 88 1007.7
20200702031006 62 232 5.2 10.4 0.00 0.02 0.00 88 1007.7
20200702030004 62 232 4.3 8.7 0.00 0.02 0.00 88 1007.6
20200702025005 62 238 2.6 6.1 0.00 0.02 0.00 88 1007.6
20200702024505 62 238 2.6 4.3 0.00 0.02 0.00 88 1007.6
20200702024006 62 248 2.6 7.0 0.00 0.02 0.00 88 1007.6
20200702023505 62 246 4.3 7.0 0.00 0.02 0.00 88 1007.6
20200702023006 62 210 2.6 6.1 0.00 0.02 0.00 88 1007.6
20200702022505 62 222 2.6 5.2 0.00 0.02 0.00 88 1007.6
20200702022005 62 241 3.5 7.0 0.00 0.02 0.00 88 1007.6
20200702021505 62 221 3.5 6.1 0.00 0.02 0.00 88 1007.6
20200702021007 62 213 3.5 8.7 0.00 0.02 0.00 88 1007.6
20200702020006 62 230 4.3 7.8 0.00 0.02 0.00 88 1007.6
20200702015006 62 229 5.2 8.7 0.00 0.02 0.00 88 1007.6
20200702014505 62 235 4.3 8.7 0.00 0.02 0.00 88 1007.6
20200702014006 62 228 1.7 10.4 0.00 0.02 0.00 88 1007.6
20200702013505 62 225 3.5 7.8 0.00 0.02 0.00 88 1007.6
20200702013006 62 226 2.6 6.1 0.00 0.02 0.00 88 1007.6
20200702011504 62 208 3.5 7.0 0.00 0.02 0.00 87 1007.6
20200702005505 62 228 5.2 10.4 0.00 0.02 0.00 87 1007.6
20200702005006 62 237 4.3 7.0 0.00 0.02 0.00 87 1007.6
20200702003505 62 228 4.3 7.8 0.00 0.02 0.00 87 1007.6
20200702002505 62 233 3.5 8.7 0.00 0.02 0.00 87 1007.6
20200702002006 62 223 4.3 7.8 0.00 0.02 0.00 87 1007.6
20200702001505 62 230 3.5 7.8 0.00 0.02 0.00 87 1007.6
20200702001005 62 219 4.3 12.2 0.00 0.02 0.00 87 1007.6
20200702000005 62 216 3.5 7.0 0.00 0.02 0.00 87 1007.6
20200701234505 62 233 2.6 6.1 0.00 0.02 0.00 87 1007.6
20200701234006 62 240 2.6 5.2 0.00 0.02 0.00 87 1007.5
20200701233005 62 216 3.5 7.0 0.00 0.02 0.00 87 1007.6
20200701232505 61 233 4.3 7.8 0.00 0.02 0.00 87 1007.6
20200701232006 61 236 2.6 7.0 0.00 0.02 0.00 87 1007.6
20200701231504 61 224 3.5 6.1 0.00 0.02 0.00 86 1007.6
20200701230005 61 230 2.6 8.7 0.00 0.02 0.00 86 1007.6
20200701225505 61 244 2.6 5.2 0.00 0.02 0.00 86 1007.6
20200701225005 61 245 2.6 5.2 0.00 0.02 0.00 86 1007.6
20200701224506 62 198 2.6 6.1 0.00 0.02 0.00 85 1007.6
20200701224005 62 228 3.5 7.8 0.00 0.02 0.00 85 1007.6
20200701223505 62 218 2.6 7.0 0.00 0.03 0.00 85 1007.6
20200701223005 62 234 4.3 7.8 0.00 0.03 0.00 85 1007.6
20200701222005 62 229 4.3 7.8 0.00 0.03 0.00 84 1007.6
20200701221505 62 239 4.3 7.0 0.00 0.03 0.00 84 1007.5
20200701221005 62 246 4.3 7.8 0.00 0.03 0.00 83 1007.6
20200701220006 62 235 3.5 7.0 0.00 0.03 0.00 83 1007.6
20200701215505 62 252 5.2 10.4 0.00 0.03 0.03 83 1007.5
20200701215005 62 256 4.3 7.8 0.00 0.03 0.03 82 1007.5
20200701214505 62 254 3.5 8.7 0.00 0.03 0.03 82 1007.5
20200701214005 62 234 4.3 10.4 0.00 0.03 0.03 82 1007.5
20200701213006 62 243 4.3 11.3 0.00 0.04 0.03 81 1007.4
20200701212505 62 234 4.3 7.0 0.00 0.04 0.03 81 1007.4
20200701212005 62 228 2.6 8.7 0.00 0.05 0.03 81 1007.5
20200701211505 62 243 4.3 10.4 0.00 0.06 0.03 81 1007.3
20200701211006 62 239 4.3 10.4 0.00 0.06 0.03 81 1007.3
20200701205504 63 238 2.6 7.8 0.00 0.07 0.03 80 1007.1
20200701205005 63 236 5.2 8.7 0.00 0.07 0.03 80 1007.1
20200701204505 63 237 6.1 10.4 0.00 0.08 0.03 80 1007.1
20200701204005 63 239 5.2 10.4 0.00 0.08 0.03 79 1007.1
20200701203505 63 253 5.2 8.7 0.00 0.09 0.03 79 1007.0
20200701203006 63 246 5.2 13.0 0.00 0.09 0.03 79 1007.0
20200701202506 63 238 3.5 11.3 0.00 0.10 0.03 78 1007.0
20200701202006 63 239 6.1 10.4 0.00 0.11 0.03 78 1007.0
20200701201006 63 240 5.2 11.3 0.00 0.11 0.03 78 1007.0
20200701200005 63 242 4.3 13.0 0.00 0.11 0.03 78 1006.9
20200701195505 63 228 5.2 10.4 0.00 0.11 0.03 78 1006.9
20200701195006 64 250 5.2 11.3 0.00 0.11 0.03 78 1006.8
20200701194504 64 247 2.6 10.4 0.00 0.11 0.03 78 1006.8
20200701194006 64 241 5.2 10.4 0.00 0.11 0.03 77 1006.8
20200701192505 64 238 5.2 10.4 0.00 0.11 0.03 76 1006.7
20200701192005 64 250 6.1 11.3 0.00 0.11 0.03 76 1006.8
20200701191005 64 262 7.0 13.0 0.00 0.11 0.03 76 1006.9
20200701190006 65 227 4.3 10.4 0.00 0.11 0.03 76 1006.7
20200701185505 65 237 6.1 13.0 0.00 0.11 0.03 75 1006.8
20200701185006 65 234 7.0 11.3 0.00 0.11 0.03 75 1006.8
20200701184505 66 251 7.8 13.9 0.00 0.12 0.03 74 1006.7
20200701184006 66 272 5.2 11.3 0.00 0.12 0.03 74 1006.7
20200701183005 66 273 7.8 18.2 0.00 0.12 0.03 73 1006.9
20200701182505 66 244 6.1 18.2 0.00 0.12 0.03 73 1006.9
20200701182006 66 243 5.2 12.2 0.00 0.12 0.03 73 1006.8
20200701181505 66 250 6.1 15.6 0.00 0.12 0.03 73 1006.7
20200701180005 66 262 5.2 10.4 0.00 0.12 0.03 73 1006.8
20200701175505 66 244 6.1 10.4 0.00 0.12 0.03 72 1006.6
20200701174006 66 245 7.8 13.9 0.00 0.12 0.03 72 1006.5
20200701173505 66 270 7.0 13.9 0.00 0.13 0.03 72 1006.5
20200701172504 66 256 9.6 17.4 0.00 0.13 0.03 72 1006.5
20200701172006 66 247 7.8 14.8 0.00 0.13 0.03 72 1006.5
20200701171505 66 232 7.8 14.8 0.00 0.13 0.03 72 1006.5
20200701171005 66 235 7.8 15.6 0.00 0.14 0.03 72 1006.5
20200701165505 66 245 5.2 12.2 0.00 0.14 0.03 72 1006.5
20200701165005 66 234 7.8 13.0 0.00 0.15 0.03 72 1006.5
20200701164505 67 262 5.2 12.2 0.00 0.16 0.03 72 1006.5
20200701163505 67 262 4.3 14.8 0.00 0.16 0.03 72 1006.5
20200701163006 66 250 6.1 11.3 0.00 0.18 0.03 72 1006.5
20200701162005 66 260 7.8 14.8 0.00 0.20 0.03 71 1006.5
20200701160006 67 256 8.7 18.2 0.00 0.21 0.03 69 1006.4
20200701155505 67 267 8.7 17.4 0.00 0.21 0.03 67 1006.4
20200701155006 68 232 6.1 15.6 0.00 0.21 0.03 67 1006.4
20200701153505 67 259 7.8 15.6 0.00 0.21 0.03 68 1006.4
20200701153006 68 256 7.8 14.8 0.00 0.21 0.03 68 1006.4
20200701152504 67 241 7.8 13.9 0.00 0.21 0.03 70 1006.3
20200701152006 67 251 5.2 17.4 0.00 0.21 0.03 69 1006.3
20200701151505 67 255 7.8 18.2 0.00 0.21 0.03 68 1006.2
20200701151006 68 256 6.1 15.6 0.00 0.22 0.03 69 1006.1
20200701150006 67 250 8.7 13.9 0.00 0.22 0.03 68 1006.0
20200701145505 67 251 7.8 15.6 0.00 0.22 0.03 68 1006.0
20200701144504 67 243 7.8 13.9 0.00 0.22 0.03 70 1006.0
20200701143005 67 239 7.8 12.2 0.00 0.23 0.03 71 1006.0
20200701142505 66 247 7.0 12.2 0.00 0.23 0.03 71 1006.0
20200701142006 67 236 5.2 13.9 0.00 0.24 0.03 70 1006.0
20200701141006 66 264 6.1 17.4 0.00 0.25 0.03 70 1006.0
20200701135005 65 237 5.2 15.6 0.00 0.27 0.03 74 1005.9
20200701134505 65 245 8.7 17.4 0.00 0.28 0.03 73 1005.9
20200701133505 65 241 7.8 13.9 0.00 0.29 0.03 74 1005.9
20200701133006 65 249 6.1 14.8 0.00 0.31 0.03 74 1005.8
20200701132504 65 240 6.1 14.8 0.00 0.33 0.03 74 1005.8
20200701131505 65 250 5.2 13.0 0.00 0.34 0.03 72 1005.7
20200701131005 65 263 6.1 14.8 0.00 0.34 0.03 71 1005.7
20200701125006 65 254 6.1 15.6 0.00 0.34 0.03 73 1005.5
20200701124505 65 247 6.1 13.9 0.00 0.34 0.03 71 1005.5
20200701124005 65 247 6.1 13.9 0.00 0.34 0.03 72 1005.5
20200701123006 65 251 9.6 17.4 0.00 0.34 0.03 74 1005.5
20200701122505 66 262 5.2 10.4 0.00 0.34 0.03 75 1005.4
20200701122005 65 261 7.0 13.0 0.00 0.34 0.03 75 1005.5
20200701121505 65 257 8.7 18.2 0.00 0.34 0.03 75 1005.4
20200701120006 66 269 8.7 18.2 0.00 0.34 0.03 75 1005.4
20200701115505 66 254 6.1 13.0 0.00 0.34 0.03 76 1005.1
20200701115006 65 236 7.0 17.4 0.00 0.34 0.03 76 1005.1
20200701114005 66 249 7.8 14.8 0.00 0.34 0.03 74 1005.0
20200701113506 66 231 9.6 17.4 0.01 0.34 0.03 73 1005.0
20200701113006 66 240 6.1 11.3 0.01 0.34 0.03 75 1005.0
20200701112504 66 246 7.0 15.6 0.01 0.34 0.03 77 1005.0
20200701112006 66 254 6.1 12.2 0.01 0.34 0.03 77 1005.0
20200701110005 66 223 8.7 18.2 0.01 0.34 0.03 78 1004.9
20200701105006 66 248 9.6 18.2 0.01 0.34 0.03 78 1004.8
20200701104505 66 272 10.4 17.4 0.01 0.34 0.03 77 1004.8
20200701102504 66 268 8.7 13.9 0.00 0.33 0.02 78 1004.5
20200701101505 66 252 7.8 15.6 0.00 0.33 0.02 79 1004.6
20200701101005 66 276 5.2 17.4 0.00 0.33 0.02 79 1004.5